Home   Weather   Recife   Past weeks

Flag for Brazil Past Weather in Recife, Pernambuco, Brazil — Yesterday and Last 2 Weeks

Now
81 °F

Passing clouds.


Feels Like: 86 °F
Forecast: 78 / 85 °F
Wind: 14 mph from Southeast

Location: Recife Aeroporto

Current Time: Apr 24, 2017 at 4:33:55 am

Latest Report: Apr 24, 2017 at 3:00 am


Visibility: N/A

Pressure: 29.89 "Hg

Humidity: 84%

Dew Point: 75 °F

Location of RecifeLocation

Past Weather in Recife — Graph

°F

Recife Temperature Yesterday

Maximum temperature yesterday: 86 °F (at 11:00 am)
Minimum temperature yesterday: 79 °F (at 6:00 am)
Average temperature yesterday: 83 °F

High & Low Weather Summary for the Past Weeks

 TemperatureHumidityPressure
High88 °F (Apr 19, 11:00 am)100% (Apr 22, 5:00 am)29.98 "Hg (Apr 22, 5:00 am)
Low75 °F (Apr 20, 2:00 am)62% (Apr 20, 10:00 am)29.80 "Hg (Apr 20, 2:00 pm)
Average82 °F82%29.89 "Hg
* Reported Apr 18 6:00 pm — Apr 24 3:00 am, Recife, Weather by CustomWeather, © 2017

Note: Actual official high and low records may vary slightly from our data, if they occured in-between our weather recording intervals... More about our weather records

Advertising

Recife Weather History for the Previous 24 Hours

Scroll right to see more
 ConditionsComfort  
Time TempWeatherWind HumidityBarometerVisibility
3:00 am
Mon, Apr 24
81 °FPassing clouds.14 mph84%29.89 "HgN/A
2:00 am81 °FPassing clouds.9 mph84%29.89 "HgN/A
1:00 am81 °FPassing clouds.10 mph84%29.89 "HgN/A
12:00 am81 °FPassing clouds.9 mph84%29.92 "HgN/A
11:00 pm
Sun, Apr 23
81 °FPassing clouds.8 mph84%29.95 "HgN/A
10:00 pm82 °FPassing clouds.9 mph79%29.95 "HgN/A
9:00 pm82 °FPassing clouds.8 mph79%29.95 "HgN/A
8:00 pm82 °FPassing clouds.9 mph79%29.92 "HgN/A
7:00 pm82 °FPassing clouds.12 mph79%29.89 "HgN/A
6:00 pm82 °FPassing clouds.10 mph79%29.86 "HgN/A
5:00 pm82 °FPassing clouds.10 mph79%29.86 "HgN/A
4:00 pm84 °FPassing clouds.10 mph74%29.86 "HgN/A
3:00 pm86 °FPassing clouds.9 mph75%29.86 "HgN/A
2:00 pm86 °FScattered clouds.9 mph75%29.86 "HgN/A
1:00 pm86 °FScattered clouds.12 mph75%29.89 "HgN/A
12:00 pm82 °FScattered showers. Partly sunny.14 mph89%29.92 "HgN/A
11:00 am86 °FScattered clouds.10 mph75%29.95 "HgN/A
10:00 am84 °FPartly sunny.10 mph79%29.98 "HgN/A
9:00 am81 °FScattered clouds.6 mph89%29.98 "HgN/A
8:00 am81 °FScattered showers. Broken clouds.6 mph94%29.98 "HgN/A
7:00 am79 °FThunderstorms. Broken clouds.6 mph94%29.95 "Hg5 mi
6:00 am79 °FLight rain. Broken clouds.6 mph94%29.92 "Hg2 mi
5:00 am81 °FPassing clouds.6 mph89%29.92 "HgN/A
4:00 am82 °FPassing clouds.7 mph84%29.89 "HgN/A
Weather by CustomWeather, © 2017

See weather overviewHow to use our weather pages